DW1695 Weather Reports


time (UTC)temp
C
wind
direction
speed
KPH
gust
KPH
rain 1hr
cm
rain 24hr
cm
rain mn
cm
humidity
%
barometer
mb
20260507213505 12 354 4.8 14.5 0.00 0.00 0.00 45 1010.6
20260507213003 12 312 8.0 20.9 0.00 0.00 0.00 45 1010.4
20260507212505 12 349 8.0 19.3 0.00 0.00 0.00 45 1010.4
20260507212004 11 319 8.0 12.9 0.00 0.00 0.00 46 1010.4
20260507211505 12 291 8.0 22.5 0.00 0.00 0.00 46 1010.4
20260507211004 12 329 8.0 12.9 0.00 0.00 0.00 46 1010.4
20260507210504 12 298 9.7 19.3 0.00 0.00 0.00 45 1010.4
20260507205004 13 279 6.4 16.1 0.00 0.00 0.00 45 1010.3
20260507204505 13 284 6.4 11.3 0.00 0.00 0.00 46 1010.4
20260507204004 13 350 6.4 19.3 0.00 0.00 0.00 45 1010.2
20260507203504 13 298 4.8 16.1 0.00 0.00 0.00 46 1010.4
20260507203004 12 303 9.7 20.9 0.00 0.00 0.00 47 1010.4
20260507202504 12 299 6.4 16.1 0.00 0.00 0.00 48 1010.5
20260507202004 11 351 8.0 19.3 0.00 0.00 0.00 50 1010.5
20260507201503 12 255 6.4 19.3 0.00 0.00 0.00 48 1010.6
20260507201004 12 333 6.4 19.3 0.00 0.00 0.00 52 1010.6
20260507200505 12 313 4.8 14.5 0.00 0.00 0.00 49 1010.6
20260507200004 12 282 8.0 24.1 0.00 0.00 0.00 48 1010.6
20260507195504 12 322 8.0 16.1 0.00 0.00 0.00 50 1010.6
20260507195003 12 333 11.3 25.7 0.00 0.00 0.00 51 1010.7
20260507194503 12 306 11.3 22.5 0.00 0.00 0.00 49 1010.6
20260507193503 13 337 4.8 12.9 0.00 0.00 0.00 49 1010.7
20260507192504 12 354 8.0 19.3 0.00 0.00 0.00 52 1010.8
20260507192003 12 314 9.7 22.5 0.00 0.00 0.00 51 1010.9
20260507191504 12 347 8.0 20.9 0.00 0.00 0.00 51 1010.9
20260507191004 12 345 4.8 19.3 0.00 0.00 0.00 52 1011.0
20260507190504 12 280 4.8 16.1 0.00 0.00 0.00 53 1011.0
20260507190005 11 315 8.0 20.9 0.00 0.00 0.00 52 1010.9
20260507185504 11 311 4.8 11.3 0.00 0.00 0.00 53 1011.1
20260507185004 11 321 9.7 25.7 0.00 0.00 0.00 51 1011.1
20260507184505 11 339 4.8 14.5 0.00 0.00 0.00 53 1011.1
20260507184004 11 339 8.0 14.5 0.00 0.00 0.00 52 1011.2
20260507183504 11 275 4.8 14.5 0.00 0.00 0.00 53 1011.1
20260507183004 11 264 3.2 11.3 0.00 0.00 0.00 54 1011.0
20260507182504 12 281 4.8 12.9 0.00 0.00 0.00 52 1011.1
20260507182004 12 293 8.0 19.3 0.00 0.00 0.00 51 1011.0
20260507181504 12 305 9.7 19.3 0.00 0.00 0.00 51 1011.1
20260507181005 12 277 8.0 19.3 0.00 0.00 0.00 51 1011.0
20260507180503 12 328 3.2 9.7 0.00 0.00 0.00 53 1011.1
20260507180004 12 254 3.2 12.9 0.00 0.00 0.00 53 1011.2
20260507175504 12 287 6.4 12.9 0.00 0.00 0.00 53 1011.2
20260507175005 11 325 3.2 19.3 0.00 0.00 0.00 55 1011.2
20260507174504 11 240 4.8 19.3 0.00 0.00 0.00 54 1011.3
20260507174004 11 270 6.4 24.1 0.00 0.00 0.00 55 1011.4
20260507173504 10 254 6.4 12.9 0.00 0.00 0.00 55 1011.4
20260507173004 10 299 9.7 16.1 0.00 0.00 0.00 56 1011.5
20260507172504 10 303 9.7 20.9 0.00 0.00 0.00 54 1011.5
20260507172004 11 260 9.7 19.3 0.00 0.00 0.00 53 1011.5
20260507171003 11 312 8.0 16.1 0.00 0.00 0.00 51 1011.5
20260507170503 11 310 8.0 19.3 0.00 0.00 0.00 50 1011.4
20260507170004 11 307 9.7 14.5 0.00 0.00 0.00 52 1011.5
20260507165504 11 295 4.8 11.3 0.00 0.00 0.00 53 1011.5
20260507165003 10 242 8.0 19.3 0.00 0.00 0.00 54 1011.6
20260507164504 11 303 9.7 19.3 0.00 0.00 0.00 54 1011.7
20260507164004 11 157 9.7 19.3 0.00 0.00 0.00 53 1011.6
20260507163504 11 295 4.8 14.5 0.00 0.00 0.00 55 1011.7
20260507163004 10 265 8.0 19.3 0.00 0.00 0.00 53 1011.8
20260507162504 11 304 6.4 14.5 0.00 0.00 0.00 54 1011.8
20260507162003 11 316 4.8 12.9 0.00 0.00 0.00 53 1011.8
20260507161504 11 334 6.4 12.9 0.00 0.00 0.00 53 1011.8
20260507161004 12 326 9.7 20.9 0.00 0.00 0.00 53 1011.7
20260507160502 12 320 8.0 20.9 0.00 0.00 0.00 55 1011.7
20260507160004 11 252 4.8 14.5 0.00 0.00 0.00 54 1011.8
20260507155003 11 301 8.0 19.3 0.00 0.00 0.00 54 1012.1
20260507154503 11 254 4.8 16.1 0.00 0.00 0.00 57 1012.0
20260507154004 10 333 6.4 11.3 0.00 0.00 0.00 58 1012.0
20260507153504 10 314 1.6 14.5 0.00 0.00 0.00 57 1012.1
20260507152502 10 299 8.0 20.9 0.00 0.00 0.00 54 1012.1
20260507151502 10 299 4.8 12.9 0.00 0.00 0.00 55 1012.1
20260507151003 11 277 4.8 12.9 0.00 0.00 0.00 53 1012.1
20260507150502 11 325 9.7 19.3 0.00 0.00 0.00 53 1012.1
20260507150005 10 337 8.0 14.5 0.00 0.00 0.00 54 1012.2
20260507145503 10 304 6.4 12.9 0.00 0.00 0.00 58 1012.3
20260507145003 10 295 6.4 14.5 0.00 0.00 0.00 57 1012.3
20260507144503 10 261 4.8 19.3 0.00 0.00 0.00 56 1012.3
20260507144003 10 297 4.8 14.5 0.00 0.00 0.00 57 1012.3
20260507143503 10 293 6.4 16.1 0.00 0.00 0.00 62 1012.4
20260507143003 10 350 6.4 12.9 0.00 0.00 0.00 61 1012.3
20260507142503 10 335 3.2 9.7 0.00 0.00 0.00 66 1012.4
20260507141503 10 292 3.2 8.0 0.00 0.00 0.00 67 1012.5
20260507141003 10 318 4.8 8.0 0.00 0.00 0.00 68 1012.5
20260507140502 10 351 1.6 9.7 0.00 0.00 0.00 68 1012.5
20260507140002 10 336 4.8 8.0 0.00 0.00 0.00 67 1012.5
20260507135503 10 5 3.2 4.8 0.00 0.00 0.00 69 1012.6
20260507135003 10 12 3.2 9.7 0.00 0.00 0.00 67 1012.7
20260507134503 10 320 3.2 11.3 0.00 0.00 0.00 67 1012.7
20260507134002 9 300 3.2 8.0 0.00 0.00 0.00 69 1012.7
20260507133502 9 155 3.2 11.3 0.00 0.00 0.00 69 1012.8
20260507133003 9 69 1.6 4.8 0.00 0.00 0.00 72 1012.8
20260507132502 8 11 3.2 4.8 0.00 0.00 0.00 72 1012.8
20260507132003 8 262 1.6 4.8 0.00 0.00 0.00 73 1012.9
20260507131503 8 294 1.6 9.7 0.00 0.00 0.00 73 1012.9
20260507131002 8 309 3.2 8.0 0.00 0.03 0.00 74 1012.8
20260507130503 7 290 3.2 11.3 0.00 0.03 0.00 74 1012.8
20260507130003 7 289 4.8 11.3 0.00 0.03 0.00 73 1012.8
20260507125502 6 306 3.2 8.0 0.00 0.03 0.00 76 1012.7
20260507125003 6 178 4.8 8.0 0.00 0.03 0.00 74 1012.7
20260507124503 6 173 4.8 9.7 0.00 0.03 0.00 74 1012.6
20260507124003 6 168 4.8 11.3 0.00 0.03 0.00 73 1012.7
20260507123502 6 220 3.2 8.0 0.00 0.03 0.00 76 1012.7
20260507122503 6 163 3.2 4.8 0.00 0.05 0.00 78 1012.7
20260507121503 5 154 4.8 11.3 0.00 0.05 0.00 79 1012.8
20260507121003 5 146 3.2 11.3 0.00 0.05 0.00 81 1012.7
20260507120502 5 146 1.6 4.8 0.00 0.05 0.00 83 1012.7
20260507120002 4 142 3.2 4.8 0.00 0.05 0.00 84 1012.7
20260507115503 3 153 4.8 4.8 0.00 0.05 0.00 86 1012.7
20260507115002 3 146 4.8 11.3 0.00 0.05 0.00 87 1012.7
20260507114503 3 148 3.2 8.0 0.00 0.05 0.00 89 1012.7
20260507114004 2 163 1.6 3.2 0.00 0.05 0.00 89 1012.8
20260507113004 2 164 3.2 4.8 0.00 0.05 0.00 91 1012.7
20260507112503 2 162 1.6 3.2 0.00 0.08 0.00 92 1012.6
20260507112003 2 162 0.0 4.8 0.00 0.08 0.00 93 1012.7
20260507111506 1 169 1.6 4.8 0.00 0.08 0.00 94 1012.7
20260507111002 1 170 0.0 3.2 0.00 0.08 0.00 94 1012.7
20260507104503 0 217 0.0 0.0 0.00 0.15 0.00 93 1012.4
20260507104003 0 217 0.0 0.0 0.00 0.15 0.00 94 1012.4
20260507103003 0 217 0.0 0.0 0.00 0.18 0.00 93 1012.4
20260507102002 0 217 0.0 0.0 0.00 0.18 0.00 93 1012.4
20260507101503 0 217 0.0 0.0 0.00 0.18 0.00 93 1012.3
20260507101003 0 217 0.0 1.6 0.00 0.18 0.00 93 1012.3
20260507100503 0 210 0.0 0.0 0.00 0.18 0.00 93 1012.3
20260507100003 0 210 0.0 0.0 0.00 0.20 0.00 92 1012.3
20260507095503 0 210 0.0 0.0 0.00 0.20 0.00 92 1012.3
20260507095003 0 210 0.0 0.0 0.00 0.23 0.00 92 1012.3
20260507094503 0 210 0.0 0.0 0.00 0.23 0.00 92 1012.3
20260507094005 0 210 0.0 0.0 0.00 0.25 0.00 92 1012.3
20260507093503 0 210 0.0 0.0 0.00 0.28 0.00 92 1012.3
20260507093003 1 210 0.0 0.0 0.00 0.30 0.00 92 1012.3
20260507092504 1 210 0.0 0.0 0.00 0.33 0.00 92 1012.3
20260507091504 1 210 0.0 0.0 0.00 0.36 0.00 91 1012.5
20260507091003 1 210 0.0 0.0 0.00 0.38 0.00 91 1012.5
20260507090504 1 210 0.0 0.0 0.00 0.38 0.00 92 1012.5
20260507090004 1 210 0.0 1.6 0.00 0.41 0.00 92 1012.6
20260507085503 1 210 1.6 3.2 0.00 0.43 0.00 92 1012.6
20260507085003 1 210 1.6 3.2 0.00 0.43 0.00 91 1012.5
20260507084504 1 210 1.6 3.2 0.00 0.46 0.00 92 1012.6
20260507084003 1 210 1.6 4.8 0.00 0.46 0.00 91 1012.6
20260507083503 1 210 1.6 4.8 0.00 0.48 0.00 91 1012.7
20260507082005 2 210 1.6 3.2 0.00 0.56 0.00 92 1012.7
20260507081503 2 210 1.6 3.2 0.00 0.58 0.00 92 1012.7
20260507080504 1 210 1.6 4.8 0.00 0.61 0.00 91 1012.7
20260507080003 1 210 3.2 3.2 0.00 0.66 0.00 91 1012.8
20260507075503 1 210 1.6 3.2 0.00 0.71 0.00 91 1012.8
20260507075003 1 210 1.6 3.2 0.00 0.71 0.00 91 1012.8
20260507074503 1 210 3.2 4.8 0.00 0.74 0.00 91 1012.7
20260507074003 1 210 1.6 3.2 0.00 0.74 0.00 91 1012.7
20260507073504 2 210 1.6 4.8 0.00 0.76 0.00 91 1012.7
20260507073003 2 210 3.2 3.2 0.00 0.79 0.00 91 1012.7
20260507072503 2 210 1.6 4.8 0.00 0.81 0.00 90 1012.8
20260507072003 2 210 3.2 4.8 0.00 0.86 0.00 90 1012.7
20260507070503 2 213 1.6 4.8 0.00 0.91 0.00 90 1012.8
20260507070007 2 213 3.2 4.8 0.00 0.91 0.00 90 1012.8
20260507065503 2 213 3.2 4.8 0.00 0.94 0.00 90 1012.9
20260507065004 2 213 3.2 4.8 0.00 0.94 0.00 89 1013.0
20260507064505 2 213 3.2 4.8 0.00 0.97 0.00 89 1013.1
20260507064003 3 213 1.6 4.8 0.00 0.97 0.00 89 1013.2
20260507063504 3 213 1.6 4.8 0.00 0.99 0.00 89 1013.2
20260507063003 3 212 3.2 4.8 0.00 0.99 0.00 89 1013.2
20260507062503 3 213 1.6 3.2 0.00 0.99 0.00 88 1013.2
20260507062003 3 213 1.6 3.2 0.00 1.02 0.00 88 1013.2
20260507061503 3 213 1.6 3.2 0.00 1.02 0.00 88 1013.3
20260507061003 3 213 0.0 3.2 0.00 1.04 0.00 88 1013.3
20260507060503 3 213 0.0 0.0 0.00 1.07 0.00 88 1013.4
20260507060004 3 213 0.0 0.0 0.00 1.07 0.00 88 1013.3
20260507055503 3 213 0.0 0.0 0.00 1.09 0.00 88 1013.3
20260507054505 3 210 1.6 4.8 0.00 1.12 0.00 88 1013.2
20260507054004 4 195 1.6 3.2 0.00 1.12 0.00 88 1013.4
20260507053503 4 195 1.6 3.2 0.00 1.14 0.00 88 1013.2
20260507053004 4 195 1.6 3.2 0.00 1.14 0.00 87 1013.3
20260507052504 4 195 1.6 3.2 0.00 1.14 0.00 88 1013.4
20260507052004 4 195 3.2 3.2 0.00 1.17 0.00 88 1013.4
20260507051503 4 194 0.0 0.0 0.00 1.17 0.00 88 1013.4
20260507051003 4 194 0.0 0.0 0.00 1.17 0.00 88 1013.5
20260507050503 4 194 0.0 0.0 0.00 1.19 0.00 88 1013.6
20260507050004 4 194 0.0 0.0 0.00 1.24 0.00 87 1013.6
20260507045003 4 194 0.0 1.6 0.00 1.32 0.00 86 1013.8
20260507044505 4 194 0.0 1.6 0.00 1.35 0.00 86 1013.8
20260507044004 4 194 0.0 0.0 0.00 1.37 0.00 85 1013.8
20260507043505 4 194 0.0 0.0 0.00 1.40 0.00 85 1014.0
20260507042503 5 195 0.0 0.0 0.00 1.47 0.00 84 1013.9
20260507042004 5 195 1.6 3.2 0.00 1.50 0.00 84 1014.0
20260507041504 5 195 1.6 3.2 0.00 1.52 0.00 84 1014.0
20260507041004 5 196 0.0 1.6 0.00 1.57 0.00 83 1013.9
20260507040503 5 196 1.6 4.8 0.00 1.63 0.00 83 1013.8
20260507040003 5 253 0.0 4.8 0.00 1.68 0.00 82 1013.7
20260507035503 5 254 0.0 3.2 0.00 1.70 1.68 82 1013.7
20260507035004 5 257 1.6 4.8 0.00 1.73 1.68 82 1013.7
20260507034505 5 222 0.0 3.2 0.00 1.78 1.68 81 1013.8
20260507034004 5 208 1.6 4.8 0.00 1.78 1.68 81 1013.6
20260507033503 5 267 3.2 4.8 0.00 1.80 1.68 81 1013.6
20260507032504 5 271 1.6 4.8 0.00 1.83 1.68 80 1013.5
20260507032003 5 230 1.6 4.8 0.00 1.83 1.68 80 1013.6
20260507031504 5 212 3.2 4.8 0.00 1.85 1.68 80 1013.5
20260507031003 5 266 1.6 3.2 0.00 1.85 1.68 80 1013.5
20260507030504 5 263 3.2 4.8 0.00 1.88 1.68 79 1013.5
20260507030005 5 216 1.6 4.8 0.00 1.91 1.68 79 1013.4
20260507025503 5 195 3.2 4.8 0.00 1.91 1.68 79 1013.4
20260507025003 5 222 1.6 4.8 0.00 1.93 1.68 79 1013.3
20260507024503 5 249 0.0 4.8 0.00 1.96 1.68 79 1013.3
20260507024004 5 304 1.6 4.8 0.00 1.96 1.68 78 1013.3
20260507023503 5 204 1.6 4.8 0.00 1.98 1.68 78 1013.4
20260507023004 5 187 1.6 8.0 0.00 2.01 1.68 78 1013.4
20260507022504 5 227 1.6 8.0 0.00 2.01 1.68 77 1013.3
20260507022003 5 266 0.0 4.8 0.00 2.03 1.68 77 1013.3
20260507020503 5 257 3.2 4.8 0.00 2.13 1.68 76 1013.2
20260507020003 5 263 4.8 9.7 0.00 2.16 1.68 75 1013.2
20260507015505 6 226 3.2 4.8 0.00 2.24 1.68 75 1013.2
20260507015004 6 228 0.0 3.2 0.00 2.41 1.68 75 1013.3
20260507014504 6 232 1.6 9.7 0.00 2.59 1.68 74 1013.3
20260507014004 6 227 3.2 8.0 0.00 2.67 1.68 74 1013.3
20260507013503 6 242 1.6 9.7 0.00 2.74 1.68 74 1013.4
20260507013004 6 150 3.2 8.0 0.00 2.87 1.68 73 1013.3
20260507012503 6 258 1.6 4.8 0.00 2.92 1.68 73 1013.3
20260507012005 6 226 1.6 4.8 0.00 2.95 1.68 73 1013.3
20260507011004 6 274 3.2 8.0 0.00 2.97 1.68 71 1013.4
20260507010503 6 237 3.2 8.0 0.00 3.00 1.68 71 1013.4
20260507010003 6 194 3.2 8.0 0.00 3.00 1.68 70 1013.4
20260507005503 6 214 3.2 8.0 0.00 3.00 1.68 70 1013.5
20260507005004 6 270 3.2 11.3 0.00 3.00 1.68 69 1013.4
20260507004503 6 252 4.8 14.5 0.00 3.02 1.68 69 1013.4
20260507003503 7 265 4.8 11.3 0.00 3.05 1.68 68 1013.3
20260507002503 7 262 3.2 9.7 0.00 3.07 1.68 71 1013.1
20260507002003 7 289 3.2 8.0 0.00 3.10 1.68 70 1013.1
20260507001503 7 270 3.2 9.7 0.00 3.10 1.68 69 1013.1
20260507001004 7 278 4.8 12.9 0.00 3.15 1.68 68 1013.2
20260507000504 7 275 3.2 8.0 0.00 3.20 1.68 68 1012.9
20260507000004 7 286 4.8 9.7 0.00 3.23 1.68 68 1013.0
20260506235504 7 296 3.2 4.8 0.00 3.23 1.68 68 1012.9
20260506235003 7 264 1.6 4.8 0.00 3.25 1.68 69 1012.6
20260506234504 7 280 1.6 9.7 0.00 3.28 1.68 70 1012.7
20260506233504 7 291 1.6 4.8 0.00 3.35 1.68 69 1012.5
20260506233003 7 279 4.8 9.7 0.00 3.35 1.68 67 1012.4
20260506231004 8 290 4.8 14.5 0.00 3.38 1.68 71 1012.6
20260506230503 8 314 3.2 11.3 0.00 3.38 1.68 72 1012.5
20260506230004 8 273 6.4 9.7 0.00 3.38 1.68 72 1012.4
20260506225004 8 309 3.2 9.7 0.00 3.51 1.68 72 1012.1
20260506224503 8 304 4.8 11.3 0.00 3.53 1.68 72 1012.0
20260506224003 8 265 8.0 12.9 0.00 3.56 1.68 72 1012.1
20260506223503 8 270 4.8 11.3 0.00 3.61 1.68 73 1012.2
20260506223003 8 282 4.8 11.3 0.00 3.63 1.68 73 1012.2
20260506222503 8 276 8.0 14.5 0.00 3.66 1.68 72 1012.0
20260506222005 8 249 6.4 12.9 0.00 3.66 1.68 72 1011.9
20260506221505 8 264 4.8 12.9 0.00 3.66 1.68 72 1011.9
20260506220503 8 304 4.8 9.7 0.00 3.66 1.68 72 1011.8
20260506220004 8 265 3.2 9.7 0.00 3.66 1.68 72 1011.7
20260506215504 8 268 8.0 12.9 0.00 3.66 1.68 73 1011.6
20260506215004 8 300 3.2 12.9 0.00 3.66 1.68 73 1011.5
20260506214504 8 265 3.2 11.3 0.00 3.66 1.68 73 1011.4
20260506214004 8 271 4.8 12.9 0.00 3.66 1.68 73 1011.3